Content
SEND FEEDBACK

Daily
Averages
Monthly
Summary
United States of America

ROSCOE, KANSAS


Home > North America > United States > Kansas
Elevation: 2300 feet     Latitude: 39 30N     Longitude: 099 44W

WEATHER
 
SELECT A DAY
Number of Records: 187,988;   Date Range: 1/1/95 - 7/7/14
 
SHARE

PRINT THIS DATA

[ ← Previous Day ]
WEATHER ALMANAC - JANUARY 31, 2013
[ Next Day → ]
[ °C ]   °F
Weather ElementAverageHighLow
Temperature24.7 °F33.1 °F (4:53 am)16 °F (6:53 pm)
Dewpoint16.1 °F24.1 °F (4:53 am)9 °F (6:53 pm)
Humidity70.5 %82 % (6:53 am)53 % (4:53 pm)
Barometer30.24 in30.43 in (8:53 pm)29.98 in (1:53 am)
Wind Speed7.6 mph19.6 mph (12:11 pm)
Wind Gust26.5 mph (12:11 pm)
Weather ElementAverage
Visibility10 mi
Wind DirectionSE (138.6 °)

Weather ElementTotal
Precipitation---
Heating Degree Days40.5 (Base 65)
Averaged from 22 records on January 31, 2013
WEATHER CONDITIONS BREAKOUT
WIND DIRECTION BREAKOUT
WEATHER BY HOUR - JANUARY 31, 2013
[ °C ]   °F
Local TimeTemperatureDewpointHumidityBarometerVisibilityWind DirectionWind SpeedGust SpeedPrecipitationEventsConditions
1:53 AM26.1 °F19.9 °F78 %29.98 in10.0 miWest (260°)9.2 mphScattered Clouds
2:53 AM27.0 °F19.9 °F75 %30.00 in10.0 miWest (280°)6.9 mphMostly Cloudy
3:53 AM28.9 °F23.0 °F78 %30.00 in10.0 miWSW (250°)4.6 mphMostly Cloudy
4:53 AM33.1 °F24.1 °F70 %29.98 in10.0 miWNW (300°)5.8 mphScattered Clouds
5:53 AM30.0 °F23.0 °F75 %30.02 in10.0 miWest (270°)3.5 mphScattered Clouds
6:53 AM28.9 °F24.1 °F82 %30.07 in10.0 miNE (50°)6.9 mphOvercast
7:53 AM26.1 °F19.9 °F78 %30.14 in10.0 miNNE (20°)6.9 mphOvercast
8:53 AM26.1 °F18.0 °F71 %30.18 in10.0 miNE (40°)5.8 mphOvercast
9:53 AM26.1 °F18.0 °F71 %30.24 in10.0 miNNE (30°)10.4 mphScattered Clouds
10:53 AM28.0 °F19.9 °F72 %30.29 in10.0 miNNE (20°)15.0 mphMostly Cloudy
12:11 PM26.6 °F15.8 °F64 %30.25 in10.0 miNorth (10°)19.6 mph26.5 mphMostly Cloudy
12:53 PM27.0 °F14.0 °F58 %30.33 in10.0 miNorth (360°)16.1 mph23.0 mphMostly Cloudy
2:53 PM26.1 °F12.0 °F55 %30.34 in10.0 miNorth (360°)15.0 mphOvercast
3:53 PM26.1 °F12.0 °F55 %30.35 in10.0 miNorth (10°)11.5 mphClear
4:53 PM26.1 °F10.9 °F53 %30.34 in10.0 miNorth (360°)8.1 mphClear
5:53 PM21.9 °F10.9 °F63 %30.37 in10.0 miNorth (10°)5.8 mphPartly Cloudy
6:53 PM16.0 °F9.0 °F74 %30.38 in10.0 miNNE (30°)5.8 mphClear
7:53 PM16.0 °F10.9 °F81 %30.41 in10.0 miCalmMostly Cloudy
8:53 PM19.9 °F12.9 °F74 %30.43 in10.0 miCalmOvercast
9:53 PM19.9 °F12.0 °F71 %30.42 in10.0 miSouth (180°)4.6 mphOvercast
10:53 PM18.0 °F12.0 °F78 %30.42 in10.0 miCalmMostly Cloudy
11:53 PM19.9 °F12.9 °F74 %30.41 in10.0 miSSW (210°)5.8 mphOvercast
Hourly data recorded from KHLC, located miles away from Roscoe, Kansas







STORIES FROM OUR PARTNERS